Time,TemperatureF,DewpointF,PressureIn,WindDirection,WindDirectionDegrees,WindSpeedMPH,WindSpeedGustMPH,Humidity,HourlyPrecipIn,Conditions,Clouds,dailyrainin,SoftwareType,DateUTC
2013-02-16 00:09:00,57.1,53.0,29.98,NE,44,0.0,-999.0,86,-99.99,,,0.00,weatherlink.com 1.10,2013-02-16 05:09:00,
2013-02-16 00:24:00,57.4,54.0,29.98,NE,44,1.0,-999.0,87,-99.99,,,0.00,weatherlink.com 1.10,2013-02-16 05:24:00,
2013-02-16 00:39:00,57.6,53.0,29.97,NE,41,0.0,-999.0,85,-99.99,,,0.00,weatherlink.com 1.10,2013-02-16 05:39:00,
2013-02-16 00:54:00,57.5,54.0,29.97,NE,40,4.0,-999.0,87,-99.99,,,0.00,weatherlink.com 1.10,2013-02-16 05:54:00,
2013-02-16 01:09:00,57.4,53.0,29.97,NNE,28,1.0,-999.0,86,-99.99,,,0.00,weatherlink.com 1.10,2013-02-16 06:09:00,
2013-02-16 01:25:00,57.2,53.0,29.97,NNE,22,2.0,-999.0,87,-99.99,,,0.00,weatherlink.com 1.10,2013-02-16 06:25:00,
2013-02-16 01:39:00,56.8,53.0,29.96,NNE,28,1.0,-999.0,87,-99.99,,,0.00,weatherlink.com 1.10,2013-02-16 06:39:00,
2013-02-16 01:54:00,56.4,53.0,29.96,NNE,29,2.0,-999.0,87,-99.99,,,0.00,weatherlink.com 1.10,2013-02-16 06:54:00,
2013-02-16 02:09:00,56.3,53.0,29.96,NNE,27,2.0,-999.0,87,-99.99,,,0.00,weatherlink.com 1.10,2013-02-16 07:09:00,
2013-02-16 02:24:00,56.1,52.0,29.96,NNE,28,2.0,-999.0,87,-99.99,,,0.00,weatherlink.com 1.10,2013-02-16 07:24:00,
2013-02-16 02:39:00,56.1,52.0,29.95,NNE,28,4.0,-999.0,87,-99.99,,,0.00,weatherlink.com 1.10,2013-02-16 07:39:00,
2013-02-16 02:54:00,56.1,52.0,29.94,NNE,28,4.0,-999.0,86,-99.99,,,0.00,weatherlink.com 1.10,2013-02-16 07:54:00,
2013-02-16 03:09:00,56.1,52.0,29.94,NNE,31,2.0,-999.0,85,-99.99,,,0.00,weatherlink.com 1.10,2013-02-16 08:09:00,
2013-02-16 03:24:00,56.1,51.0,29.94,NNE,30,1.0,-999.0,84,-99.99,,,0.00,weatherlink.com 1.10,2013-02-16 08:24:00,
2013-02-16 03:39:00,56.0,51.0,29.93,NNE,30,1.0,-999.0,84,-99.99,,,0.00,weatherlink.com 1.10,2013-02-16 08:39:00,
2013-02-16 03:54:00,56.0,51.0,29.93,NNE,32,2.0,-999.0,84,-99.99,,,0.00,weatherlink.com 1.10,2013-02-16 08:54:00,
2013-02-16 04:09:00,55.7,51.0,29.93,NNE,32,2.0,-999.0,83,-99.99,,,0.00,weatherlink.com 1.10,2013-02-16 09:09:00,
2013-02-16 04:25:00,55.8,50.0,29.94,NNE,28,2.0,-999.0,81,-99.99,,,0.00,weatherlink.com 1.10,2013-02-16 09:25:00,
2013-02-16 04:39:00,55.9,50.0,29.94,NNE,28,0.0,-999.0,81,-99.99,,,0.00,weatherlink.com 1.10,2013-02-16 09:39:00,
2013-02-16 04:54:00,55.8,50.0,29.93,NNE,28,0.0,-999.0,80,-99.99,,,0.00,weatherlink.com 1.10,2013-02-16 09:54:00,
2013-02-16 05:09:00,55.7,50.0,29.94,NNE,28,0.0,-999.0,81,-99.99,,,0.00,weatherlink.com 1.10,2013-02-16 10:09:00,
2013-02-16 05:24:00,55.3,50.0,29.93,NNE,28,0.0,-999.0,81,-99.99,,,0.00,weatherlink.com 1.10,2013-02-16 10:24:00,
2013-02-16 05:39:00,55.0,49.0,29.93,NNE,28,0.0,-999.0,81,-99.99,,,0.00,weatherlink.com 1.10,2013-02-16 10:39:00,
2013-02-16 05:54:00,55.0,50.0,29.94,NNE,28,0.0,-999.0,82,-99.99,,,0.00,weatherlink.com 1.10,2013-02-16 10:54:00,
2013-02-16 06:09:00,54.9,49.0,29.94,NNW,344,4.0,-999.0,81,-99.99,,,0.00,weatherlink.com 1.10,2013-02-16 11:09:00,
2013-02-16 06:24:00,54.3,49.0,29.94,NW,312,4.0,-999.0,81,-99.99,,,0.00,weatherlink.com 1.10,2013-02-16 11:24:00,
2013-02-16 06:39:00,54.0,50.0,29.95,NW,309,5.0,-999.0,85,-99.99,,,0.00,weatherlink.com 1.10,2013-02-16 11:39:00,
2013-02-16 06:54:00,53.5,50.0,29.94,NW,321,1.0,-999.0,87,-99.99,,,0.00,weatherlink.com 1.10,2013-02-16 11:54:00,
2013-02-16 07:09:00,53.2,50.0,29.94,NW,321,0.0,-999.0,88,-99.99,,,0.00,weatherlink.com 1.10,2013-02-16 12:09:00,
2013-02-16 07:24:00,52.9,50.0,29.94,NW,321,2.0,-999.0,88,-99.99,,,0.00,weatherlink.com 1.10,2013-02-16 12:24:00,
2013-02-16 07:39:00,53.2,50.0,29.94,NW,319,5.0,-999.0,88,-99.99,,,0.00,weatherlink.com 1.10,2013-02-16 12:39:00,
2013-02-16 07:54:00,53.9,50.0,29.94,NW,305,1.0,-999.0,86,-99.99,,,0.00,weatherlink.com 1.10,2013-02-16 12:54:00,
2013-02-16 08:09:00,54.4,50.0,29.94,WNW,298,5.0,-999.0,85,-99.99,,,0.00,weatherlink.com 1.10,2013-02-16 13:09:00,
2013-02-16 08:24:00,55.2,51.0,29.93,NW,321,4.0,-999.0,84,-99.99,,,0.00,weatherlink.com 1.10,2013-02-16 13:24:00,
2013-02-16 08:39:00,56.1,51.0,29.94,NW,324,0.0,-999.0,84,-99.99,,,0.00,weatherlink.com 1.10,2013-02-16 13:39:00,
2013-02-16 08:54:00,57.2,52.0,29.94,NW,315,0.0,-999.0,83,-99.99,,,0.00,weatherlink.com 1.10,2013-02-16 13:54:00,
2013-02-16 09:09:00,58.2,51.0,29.95,WNW,287,1.0,-999.0,76,-99.99,,,0.00,weatherlink.com 1.10,2013-02-16 14:09:00,
2013-02-16 09:24:00,60.0,51.0,29.95,West,276,5.0,-999.0,71,-99.99,,,0.00,weatherlink.com 1.10,2013-02-16 14:24:00,
2013-02-16 09:39:00,62.0,48.0,29.95,NW,319,8.0,-999.0,60,-99.99,,,0.00,weatherlink.com 1.10,2013-02-16 14:39:00,
2013-02-16 09:54:00,63.5,45.0,29.95,West,270,2.0,-999.0,52,-99.99,,,0.00,weatherlink.com 1.10,2013-02-16 14:54:00,
2013-02-16 10:09:00,64.2,44.0,29.95,West,280,9.0,-999.0,49,-99.99,,,0.00,weatherlink.com 1.10,2013-02-16 15:09:00,
2013-02-16 10:24:00,64.4,41.0,29.95,NW,307,2.0,-999.0,43,-99.99,,,0.00,weatherlink.com 1.10,2013-02-16 15:24:00,
2013-02-16 10:39:00,65.8,41.0,29.95,WSW,255,5.0,-999.0,41,-99.99,,,0.00,weatherlink.com 1.10,2013-02-16 15:39:00,
2013-02-16 10:54:00,65.4,41.0,29.96,West,259,4.0,-999.0,41,-99.99,,,0.00,weatherlink.com 1.10,2013-02-16 15:54:00,
2013-02-16 11:09:00,65.5,41.0,29.95,WNW,298,1.0,-999.0,41,-99.99,,,0.00,weatherlink.com 1.10,2013-02-16 16:09:00,
2013-02-16 11:24:00,65.6,39.0,29.96,NW,319,5.0,-999.0,38,-99.99,,,0.00,weatherlink.com 1.10,2013-02-16 16:24:00,
2013-02-16 11:39:00,64.8,40.0,29.96,North,9,4.0,-999.0,40,-99.99,,,0.00,weatherlink.com 1.10,2013-02-16 16:39:00,
2013-02-16 11:54:00,65.6,42.0,29.96,WNW,300,4.0,-999.0,42,-99.99,,,0.00,weatherlink.com 1.10,2013-02-16 16:54:00,
2013-02-16 12:09:00,65.6,43.0,29.95,NW,307,5.0,-999.0,44,-99.99,,,0.00,weatherlink.com 1.10,2013-02-16 17:09:00,
2013-02-16 12:24:00,67.1,42.0,29.95,NNW,329,6.0,-999.0,41,-99.99,,,0.00,weatherlink.com 1.10,2013-02-16 17:24:00,
2013-02-16 12:39:00,66.7,42.0,29.94,North,355,2.0,-999.0,40,-99.99,,,0.00,weatherlink.com 1.10,2013-02-16 17:39:00,
2013-02-16 12:54:00,67.0,42.0,29.93,WNW,301,8.0,-999.0,40,-99.99,,,0.00,weatherlink.com 1.10,2013-02-16 17:54:00,
2013-02-16 13:09:00,66.9,42.0,29.92,West,261,6.0,-999.0,41,-99.99,,,0.00,weatherlink.com 1.10,2013-02-16 18:09:00,
2013-02-16 13:24:00,67.5,44.0,29.91,NW,326,2.0,-999.0,43,-99.99,,,0.00,weatherlink.com 1.10,2013-02-16 18:24:00,
2013-02-16 13:39:00,67.7,45.0,29.91,North,351,6.0,-999.0,45,-99.99,,,0.00,weatherlink.com 1.10,2013-02-16 18:39:00,
2013-02-16 13:54:00,67.5,46.0,29.91,West,264,4.0,-999.0,47,-99.99,,,0.00,weatherlink.com 1.10,2013-02-16 18:54:00,
2013-02-16 14:09:00,67.3,46.0,29.90,NW,315,9.0,-999.0,46,-99.99,,,0.00,weatherlink.com 1.10,2013-02-16 19:09:00,
2013-02-16 14:24:00,67.0,44.0,29.90,West,273,6.0,-999.0,44,-99.99,,,0.00,weatherlink.com 1.10,2013-02-16 19:24:00,
2013-02-16 14:39:00,66.7,44.0,29.90,WNW,290,5.0,-999.0,44,-99.99,,,0.00,weatherlink.com 1.10,2013-02-16 19:39:00,
2013-02-16 14:54:00,66.5,43.0,29.91,NW,315,16.0,-999.0,43,-99.99,,,0.00,weatherlink.com 1.10,2013-02-16 19:54:00,
2013-02-16 15:09:00,66.5,43.0,29.91,West,273,6.0,-999.0,42,-99.99,,,0.00,weatherlink.com 1.10,2013-02-16 20:09:00,
2013-02-16 15:24:00,65.8,43.0,29.91,West,269,3.0,-999.0,44,-99.99,,,0.00,weatherlink.com 1.10,2013-02-16 20:24:00,
2013-02-16 15:39:00,66.5,43.0,29.91,West,280,9.0,-999.0,43,-99.99,,,0.00,weatherlink.com 1.10,2013-02-16 20:39:00,
2013-02-16 15:55:00,65.7,42.0,29.92,West,273,6.0,-999.0,43,-99.99,,,0.00,weatherlink.com 1.10,2013-02-16 20:55:00,
2013-02-16 16:09:00,65.8,44.0,29.92,West,277,6.0,-999.0,45,-99.99,,,0.00,weatherlink.com 1.10,2013-02-16 21:09:00,
2013-02-16 16:24:00,64.1,45.0,29.93,NNW,342,4.0,-999.0,50,-99.99,,,0.00,weatherlink.com 1.10,2013-02-16 21:24:00,
2013-02-16 16:39:00,62.6,42.0,29.93,SSE,164,7.0,-999.0,47,-99.99,,,0.00,weatherlink.com 1.10,2013-02-16 21:39:00,
2013-02-16 16:55:00,61.6,42.0,29.94,NNW,338,10.0,-999.0,49,-99.99,,,0.00,weatherlink.com 1.10,2013-02-16 21:55:00,
2013-02-16 17:10:00,60.0,42.0,29.95,NW,307,7.0,-999.0,52,-99.99,,,0.00,weatherlink.com 1.10,2013-02-16 22:10:00,
2013-02-16 17:24:00,60.0,43.0,29.95,WNW,291,5.0,-999.0,53,-99.99,,,0.00,weatherlink.com 1.10,2013-02-16 22:24:00,
2013-02-16 17:39:00,60.2,39.0,29.96,NW,306,10.0,-999.0,45,-99.99,,,0.00,weatherlink.com 1.10,2013-02-16 22:39:00,
2013-02-16 17:54:00,59.5,28.0,29.96,West,275,10.0,-999.0,30,-99.99,,,0.00,weatherlink.com 1.10,2013-02-16 22:54:00,
2013-02-16 18:09:00,58.5,26.0,29.97,West,277,5.0,-999.0,29,-99.99,,,0.00,weatherlink.com 1.10,2013-02-16 23:09:00,
2013-02-16 18:24:00,57.7,29.0,29.97,SW,227,8.0,-999.0,34,-99.99,,,0.00,weatherlink.com 1.10,2013-02-16 23:24:00,
2013-02-16 18:39:00,56.9,29.0,29.99,WNW,284,8.0,-999.0,35,-99.99,,,0.00,weatherlink.com 1.10,2013-02-16 23:39:00,
2013-02-16 18:54:00,56.2,33.0,30.00,West,281,3.0,-999.0,41,-99.99,,,0.00,weatherlink.com 1.10,2013-02-16 23:54:00,
2013-02-16 19:09:00,55.4,35.0,30.00,WSW,253,5.0,-999.0,46,-99.99,,,0.00,weatherlink.com 1.10,2013-02-17 00:09:00,
2013-02-16 19:24:00,54.9,36.0,30.02,NNE,17,3.0,-999.0,49,-99.99,,,0.00,weatherlink.com 1.10,2013-02-17 00:24:00,
2013-02-16 19:39:00,54.6,37.0,30.02,South,180,5.0,-999.0,51,-99.99,,,0.00,weatherlink.com 1.10,2013-02-17 00:39:00,
2013-02-16 19:54:00,54.2,37.0,30.02,NNW,335,1.0,-999.0,52,-99.99,,,0.00,weatherlink.com 1.10,2013-02-17 00:54:00,
2013-02-16 20:09:00,53.9,37.0,30.03,West,272,0.0,-999.0,54,-99.99,,,0.00,weatherlink.com 1.10,2013-02-17 01:09:00,
2013-02-16 20:24:00,53.7,38.0,30.03,West,260,8.0,-999.0,55,-99.99,,,0.00,weatherlink.com 1.10,2013-02-17 01:24:00,
2013-02-16 20:39:00,53.4,38.0,30.04,WNW,303,1.0,-999.0,56,-99.99,,,0.00,weatherlink.com 1.10,2013-02-17 01:39:00,
2013-02-16 20:54:00,53.1,38.0,30.04,NW,307,0.0,-999.0,58,-99.99,,,0.00,weatherlink.com 1.10,2013-02-17 01:54:00,
2013-02-16 21:09:00,52.8,39.0,30.05,WNW,299,1.0,-999.0,59,-99.99,,,0.00,weatherlink.com 1.10,2013-02-17 02:09:00,
2013-02-16 21:24:00,52.8,39.0,30.05,WNW,287,2.0,-999.0,60,-99.99,,,0.00,weatherlink.com 1.10,2013-02-17 02:24:00,
2013-02-16 21:39:00,53.0,40.0,30.06,WNW,288,2.0,-999.0,61,-99.99,,,0.00,weatherlink.com 1.10,2013-02-17 02:39:00,
2013-02-16 21:54:00,53.1,40.0,30.07,NW,323,6.0,-999.0,61,-99.99,,,0.00,weatherlink.com 1.10,2013-02-17 02:54:00,
2013-02-16 22:10:00,53.0,40.0,30.07,West,266,4.0,-999.0,61,-99.99,,,0.00,weatherlink.com 1.10,2013-02-17 03:10:00,
2013-02-16 22:24:00,53.1,40.0,30.07,North,355,6.0,-999.0,61,-99.99,,,0.00,weatherlink.com 1.10,2013-02-17 03:24:00,
2013-02-16 22:39:00,52.9,37.0,30.09,West,260,0.0,-999.0,56,-99.99,,,0.00,weatherlink.com 1.10,2013-02-17 03:39:00,
2013-02-16 22:54:00,52.7,34.0,30.09,North,350,4.0,-999.0,49,-99.99,,,0.00,weatherlink.com 1.10,2013-02-17 03:54:00,
2013-02-16 23:10:00,52.3,33.0,30.10,East,99,1.0,-999.0,49,-99.99,,,0.00,weatherlink.com 1.10,2013-02-17 04:10:00,
2013-02-16 23:24:00,51.5,32.0,30.11,South,177,3.0,-999.0,47,-99.99,,,0.00,weatherlink.com 1.10,2013-02-17 04:24:00,
2013-02-16 23:39:00,51.1,32.0,30.11,North,5,5.0,-999.0,48,-99.99,,,0.00,weatherlink.com 1.10,2013-02-17 04:39:00,
2013-02-16 23:54:00,50.0,30.0,30.12,WNW,287,3.0,-999.0,47,-99.99,,,0.00,weatherlink.com 1.10,2013-02-17 04:54:00,